User: anonymous   Login
Location: Unspecified
(0.0000°N, 0.0000°E)
Time: 05:47:13
(UTC+00:00)
Language:

STARLINK-31660 - Orbit

View from above orbital plane
View from above orbital plane
View from above satellite
View from above satellite

Ground track
Ground track

The orbit is defined by the following mean orbital elements,

1 59642U          26145.08383961 +.00000000 +00000-0 -25729-5 0 00006
2 59642  43.0020  28.0002 0001405 271.9168  88.1522 15.27578817    00
Epoch (UTC): 25 May 2026 02:00:43
Eccentricity: 0.0001405
inclination: 43.0020°
perigee height: 482 km
apogee height: 484 km
right ascension of ascending node: 28.0002°
argument of perigee: 271.9168°
revolutions per day: 15.27578817
mean anomaly at epoch: 88.1522°

The dashed part of the orbit path shows where the satellite is in the earth's shadow,  

DLR